Location: ??????
(55.4348°N, 39.2112°E)
Time: 02:55:20
(UTC+00:00)

NOSS 3-4 (C) - Visible Passes

Search period start: 25 July 2024 00:00
Search period end: 04 August 2024 00:00
Orbit: 814 x 1397 km, 63.4° (Epoch: 04 June)

Date Brightness Start Highest point End Pass type
(mag) Time Alt. Az. Time Alt. Az. Time Alt. Az.
25 Jul 4.4 22:10:53 18° SSE 22:13:53 29° ESE 22:18:58 10° ENE visible
25 Jul 3.4 23:58:24 10° SW 00:04:04 84° NW 00:10:29 10° NE visible
26 Jul 4.8 21:27:10 15° SE 21:29:25 19° ESE 21:33:28 10° ENE visible
26 Jul 3.4 23:14:35 16° SW 23:19:10 74° SE 23:25:26 10° NE visible
27 Jul 5.2 20:43:26 11° ESE 20:45:04 12° ESE 20:47:05 10° E visible
27 Jul 3.6 22:30:51 22° SSW 22:34:22 53° SE 22:40:22 10° NE visible
28 Jul 3.9 00:19:33 10° WSW 00:25:14 58° NNW 00:31:41 10° NE visible
28 Jul 4.0 21:47:04 24° S 21:49:43 36° ESE 21:55:13 10° ENE visible
28 Jul 3.6 23:34:29 10° WSW 23:40:09 72° NNW 23:46:35 10° NE visible
29 Jul 4.5 21:03:16 20° SE 21:05:10 24° ESE 21:09:54 10° ENE visible
29 Jul 3.3 22:50:39 17° SW 22:55:10 87° SE 23:01:32 10° NE visible
30 Jul 4.9 20:19:25 15° SE 20:20:45 16° ESE 20:24:09 10° ENE visible
30 Jul 3.3 22:06:49 23° SSW 22:10:18 65° SE 22:16:29 10° NE visible
30 Jul 4.1 23:55:45 10° W 00:01:24 52° NNW 00:07:50 10° NE visible
31 Jul 3.7 21:22:54 27° S 21:25:34 45° SE 21:31:23 10° NE visible
31 Jul 3.8 23:10:35 10° WSW 23:16:16 63° NNW 23:22:42 10° NE visible
01 Aug 4.1 20:38:58 25° SSE 20:40:58 31° ESE 20:46:11 10° ENE visible
01 Aug 3.4 22:26:21 15° WSW 22:31:13 80° NW 22:37:38 10° NE visible
02 Aug 4.6 00:17:11 10° W 00:22:50 44° N 00:29:16 10° ENE visible
02 Aug 4.5 19:54:58 19° SE 19:56:28 21° ESE 20:00:44 10° ENE visible
02 Aug 3.2 21:42:21 21° SW 21:46:17 78° SE 21:52:36 10° NE visible
02 Aug 4.3 23:31:56 10° W 23:37:35 48° NNW 23:44:00 10° ENE visible
03 Aug 4.9 19:10:54 12° ESE 19:12:05 13° ESE 19:14:37 10° E visible
03 Aug 3.4 20:58:16 25° SSW 21:01:28 56° SE 21:07:31 10° NE visible
03 Aug 4.0 22:46:44 10° WSW 22:52:24 56° NNW 22:58:50 10° NE visible
